FloripaSat 1
1 44885U 19093G   25185.78741705  .00004943  00000-0  41558-3 0  9997
2 44885  97.8157 273.4410 0012567 119.3477 240.9002 14.98684337300522
RS-44
1 44909U 19096E   25185.57160553  .00000015  00000-0  19158-4 0  9998
2 44909  82.5196 210.6739 0216437 236.9831 121.0310 12.79741568257880
UPMSat 2
1 46276U 20061E   25185.15707831  .00073825  00000-0  56811-3 0  9996
2 46276  97.2420 260.4190 0002212 150.0468 210.0922 15.71787086269322
SALSAT
1 46495U 20068K   25185.51873113  .00005759  00000-0  24751-3 0  9992
2 46495  97.8611 164.7052 0013060  78.5362 281.7339 15.23018510262322
CubeSX-Sirius-HSE
1 47951U 21022V   25157.62701764  .07883385  25648-5  89537-3 0  9993
2 47951  97.4004  72.1904 0010275 223.9924 136.0557 16.36879307233400
CubeSX-HSE
1 47952U 21022W   25157.69972699  .06655353  25454-5  93288-3 0  9992
2 47952  97.3980  72.5414 0010307 219.3637 140.6911 16.34906352233436
GRBAlpha
1 47959U 21022AD  25160.45426279  .07940347  25506-5  90589-3 0  9995
2 47959  97.3899  75.6235 0011032 227.2558 132.7812 16.36806138232695
TUBIN
1 48900U 21059X   25185.78000426  .00037309  00000-0  42111-3 0  9990
2 48900  97.6760 357.0941 0004247 138.1241 222.0341 15.62408533223978
LEDSAT
1 49069U 21073D   25185.79856691  .00061763  00000-0  65626-3 0  9994
2 49069  97.3877 268.4474 0006936 341.0989  19.0011 15.63834290215375
CUTE
1 49263U 21088D   25185.19090583  .00015945  00000-0  30884-3 0  9999
2 49263  97.4499 262.1725 0009312 145.9890 214.1958 15.47753374208235
TeikyoSat 4
1 49396U 21102B   25185.63849678  .00001779  00000-0  12023-3 0  9994
2 49396  97.4089 223.1615 0013759  52.8539 307.3944 15.07729143200323
Z-Sat
1 49399U 21102E   25185.85753267  .00003853  00000-0  21144-3 0  9998
2 49399  97.3788 226.6256 0018434  22.0371 338.1650 15.14585972200805
KOSEN 1
1 49402U 21102H   25185.67956151  .00005675  00000-0  26150-3 0  9996
2 49402  97.3692 230.0590 0015347 357.8559   2.2608 15.20565882201102
HO-113
1 50466U 21131B   25185.83041922  .00000425  00000-0  14652-3 0  9991
2 50466  98.5107 275.0602 0005262  69.3075 290.8677 14.40838630185088
Foresail-1
1 52766U 22057AL  25176.64799660  .13857605  27391-5  25307-3 0  9992
2 52766  97.5832 331.2310 0012137 233.7199 258.4922 16.46795272172486
SNUGLITE 2
1 52899U 22065F   25185.38126570  .00000827  00000-0  16959-3 0  9991
2 52899  98.1717 327.1174 0008385  43.8202 316.3664 14.63259690160119
UmKA 1 (RS40S)
1 57172U 23091G   25185.82945139  .00004714  00000-0  25151-3 0  9992
2 57172  97.5568 241.0816 0012915 243.7021 116.2885 15.15576173111301
CubeBel-2 (EU11S)
1 57175U 23091K   25185.85781220  .00007077  00000-0  33423-3 0  9993
2 57175  97.5567 242.4124 0010597 250.2359 109.7733 15.19698352111397
VERONIKA
1 58261U 23174F   25185.82356681  .00178571  00000-0  10384-2 0  9996
2 58261  97.4088 273.6531 0004870 255.3787 104.6939 15.77966864 92656
ENSO
1 58470U 23185J   25185.82910908  .00046464  00000-0  61264-3 0  9997
2 58470  97.3723 261.8013 0004864 352.3726   7.7455 15.58270573 88960
EIRSAT-1
1 58472U 23185L   25185.82049289  .00120811  00000-0  89027-3 0  9990
2 58472  97.3661 264.1800 0002317 316.1417  43.9662 15.72668477 89120
SONATE-2
1 59112U 24043Q   25184.85772238  .00013163  00000-0  37202-3 0  9994
2 59112  97.5159 316.5378 0011211  34.7054 325.4919 15.36412360 74069
MO-122
1 60209U 24125G   25185.58269524  .00015884  00000-0  44020-3 0  9992
2 60209  97.2776  36.9302 0019543  51.9513 308.3491 15.36840170 55795
GRBBeta
1 60237U 24128C   25185.62226218  .00003410  00000-0  26132-3 0  9990
2 60237  61.9927 352.2309 0053724  63.0891 297.5675 15.02815436 53965
Curium One
1 60242U 24128H   25185.68287399  .00005945  00000-0  41372-3 0  9997
2 60242  61.9825 349.9363 0053664  59.3205 301.3160 15.05422262 54015
ROBUSTA-3A
1 60243U 24128J   25185.62695193  .00005927  00000-0  41829-3 0  9994
2 60243  61.9897 351.0448 0052612  57.0241 303.5892 15.04947070 53990
CatSat
1 60246U 24125J   25185.53471947  .00008746  00000-0  28859-3 0  9993
2 60246  97.2577  35.8101 0042094   7.7831 352.4054 15.30784600 53803
HYPERVIEW-1G (RS66S)
1 61772U 24199AP  25185.82393246  .00017737  00000-0  50070-3 0  9996
2 61772  97.3509  54.6397 0015338 102.0838 258.2126 15.36318127 80836
AO-123
1 61781U 24199AY  25185.84978448  .00005560  00000-0  20149-3 0  9996
2 61781  97.3524  53.2755 0017521 106.8514 253.4649 15.28631411 80747
ZIMSAT 2
1 61783U 24199BA  25185.85075286  .00032594  00000-0  75707-3 0  9994
2 61783  97.3483  55.4824 0015047  99.4286 260.8663 15.42173928 84043
HADES-R (SO-124)
1 62690U 25009CK  25185.20292489  .00032888  00000-0  11124-2 0  9996
2 62690  97.4088 265.9361 0002138  41.0608 319.0794 15.30549990 25911
HYDRA-T
1 62692U 25009CM  25185.18402150  .00034950  00000-0  11712-2 0  9998
2 62692  97.4087 265.9605 0001751  37.1219 323.0143 15.30838613 25913
JINJUSat 1B
1 63210U 25052A   25185.66282853  .00009542  00000-0  43212-3 0  9992
2 63210  97.4393  79.4725 0002926 209.9388 150.1681 15.21083687 17068
NUSHSAT 1
1 63211U 25052B   25185.65360751  .00010743  00000-0  48214-3 0  9998
2 63211  97.4384  79.4707 0002766 218.1221 141.9819 15.21359268 17061
TEVEL2-4
1 63213U 25052D   25185.14596184  .00009618  00000-0  43621-3 0  9991
2 63213  97.4299  78.8076 0001480 243.8923 116.2160 15.21033681 16988
TEVEL2-5
1 63214U 25052E   25185.67317679  .00009589  00000-0  43505-3 0  9998
2 63214  97.4303  79.3263 0001533 240.3526 119.7557 15.21021093 17061
TEVEL2-6
1 63215U 25052F   25185.67597755  .00009504  00000-0  43174-3 0  9993
2 63215  97.4300  79.3237 0001548 243.4197 116.6880 15.20980890 17067
TEVEL2-1
1 63217U 25052H   25185.69067075  .00009420  00000-0  43071-3 0  9997
2 63217  97.4275  79.2685 0001600 275.3841  84.7212 15.20758989 17061
TEVEL2-2
1 63218U 25052J   25185.62515857  .00009375  00000-0  42865-3 0  9996
2 63218  97.4277  79.2046 0001669 277.5599  82.5447 15.20759023 17059
TEVEL2-3
1 63219U 25052K   25185.69117341  .00009385  00000-0  42916-3 0  9998
2 63219  97.4276  79.2685 0001638 276.9607  83.1442 15.20754012 17063
TEVEL2-8
1 63237U 25052AD  25184.65710791  .00009223  00000-0  43707-3 0  9991
2 63237  97.4338  78.1452 0006271 297.3574  62.7022 15.19514858 16897
TEVEL2-9
1 63238U 25052AE  25185.64825293  .00009553  00000-0  45314-3 0  9998
2 63238  97.4340  79.1160 0006283 292.8080  67.2491 15.19468701 17046
TEVEL2-7
1 63239U 25052AF  25185.18977258  .00009947  00000-0  47226-3 0  9998
2 63239  97.4339  78.6574 0006340 295.4073  64.6505 15.19427545 16972
HYDRA-W
1 63490U 25052BL  25185.69660015  .00022473  00000-0  91979-3 0  9996
2 63490  97.4293  79.5863 0009172 286.1903  73.8324 15.24291137 17082
HADES-ICM (SO-125)
1 63492U 25052BN  25184.66837111  .00020352  00000-0  84675-3 0  9996
2 63492  97.4291  78.5224 0009701 295.1427  64.8804 15.23754304 16925
